PLK1003 UUWW-ULLI

Flight info

Callsign PLK1003
Flight time 1h 1m
Altitude 32000
Route SUNUN3D SUNUN M869 RAVKA N50 NUDKO T561 ODATI T875 GENPA GENPA1B
Aircraft A320/M-SDE3FGHIRWY/LB1

Departure

Time 2026-05-04 10:51
Airport Vnukovo International Airport (UUWW)

Arrival

Time 2026-05-04 11:53
Airport Pulkovo Airport (ULLI)
Time Latitude Longitude Altitude Speed Heading
2026-05-04 10:19 55.60389 37.28613 676 ft 0 kts 316°
2026-05-04 10:44 55.60262 37.28683 679 ft 4 kts 15°
2026-05-04 10:45 55.60237 37.28668 679 ft 4 kts 25°
2026-05-04 10:45 55.60213 37.28645 679 ft 4 kts 35°
2026-05-04 10:45 55.60192 37.28615 679 ft 4 kts 44°
2026-05-04 10:45 55.60183 37.28599 679 ft 0 kts 47°
2026-05-04 10:47 55.60183 37.28600 678 ft 1 kts 47°
2026-05-04 10:47 55.60210 37.28654 679 ft 5 kts 58°
2026-05-04 10:49 55.59890 37.28965 685 ft 2 kts 166°
2026-05-04 10:49 55.59832 37.28989 685 ft 14 kts 166°
2026-05-04 10:50 55.59774 37.28916 689 ft 0 kts 249°
2026-05-04 10:51 55.57182 37.20302 2717 ft 182 kts 233°
2026-05-04 10:52 55.56395 37.18397 3001 ft 203 kts 234°
2026-05-04 10:52 55.55516 37.16246 3375 ft 225 kts 236°
2026-05-04 10:52 55.54874 37.13706 4056 ft 231 kts 262°
2026-05-04 10:54 55.61469 37.01330 8929 ft 281 kts 326°
2026-05-04 10:54 55.62975 36.99105 9640 ft 285 kts 316°
2026-05-04 10:56 55.74430 36.80238 13929 ft 341 kts 316°
2026-05-04 10:56 55.76170 36.77359 14557 ft 344 kts 316°
2026-05-04 10:56 55.77954 36.74410 15188 ft 347 kts 316°
2026-05-04 10:57 55.79712 36.71512 15799 ft 351 kts 316°
2026-05-04 10:57 55.81508 36.68548 16408 ft 354 kts 316°
2026-05-04 10:57 55.83318 36.65554 16997 ft 357 kts 316°
2026-05-04 10:57 55.85145 36.62521 17564 ft 361 kts 316°
2026-05-04 10:58 55.86986 36.59454 18131 ft 364 kts 316°
2026-05-04 10:58 55.88841 36.56358 18683 ft 367 kts 316°
2026-05-04 10:58 55.90711 36.53237 19231 ft 370 kts 316°
2026-05-04 10:58 55.92598 36.50086 19757 ft 373 kts 316°
2026-05-04 10:59 55.94498 36.46911 20280 ft 376 kts 316°
2026-05-04 10:59 55.96412 36.43705 20779 ft 378 kts 316°
2026-05-04 10:59 55.98335 36.40475 21268 ft 381 kts 316°
2026-05-04 10:59 56.00271 36.37219 21740 ft 384 kts 316°
2026-05-04 11:00 56.02221 36.33937 22209 ft 386 kts 316°
2026-05-04 11:01 56.15673 36.09544 25135 ft 402 kts 299°
2026-05-04 11:02 56.16906 36.05097 25501 ft 404 kts 295°
2026-05-04 11:02 56.18117 36.00535 25865 ft 406 kts 296°
2026-05-04 11:05 56.48776 35.53125 30365 ft 431 kts 323°
2026-05-04 11:06 56.51156 35.49921 30625 ft 432 kts 323°
2026-05-04 11:06 56.53571 35.46657 30878 ft 433 kts 323°
2026-05-04 11:06 56.55989 35.43378 31141 ft 434 kts 323°
2026-05-04 11:06 56.58401 35.40103 31514 ft 433 kts 323°
2026-05-04 11:08 56.74526 35.17793 31898 ft 407 kts 322°
2026-05-04 11:10 56.90253 34.95790 31893 ft 407 kts 322°
2026-05-04 11:12 57.09169 34.73047 31879 ft 406 kts 326°
2026-05-04 11:12 57.13851 34.67357 31877 ft 406 kts 325°
2026-05-04 11:13 57.18566 34.61627 31876 ft 406 kts 325°
2026-05-04 11:13 57.23280 34.55901 31877 ft 405 kts 325°
2026-05-04 11:16 57.45995 34.28097 31868 ft 404 kts 325°
2026-05-04 11:16 57.50680 34.22321 31866 ft 404 kts 324°
2026-05-04 11:17 57.55325 34.16567 31868 ft 404 kts 324°
2026-05-04 11:19 57.73997 33.93238 31856 ft 404 kts 324°
2026-05-04 11:19 57.78659 33.87357 31836 ft 404 kts 324°
2026-05-04 11:20 57.83314 33.81462 31834 ft 404 kts 324°
2026-05-04 11:20 57.87958 33.75522 31837 ft 403 kts 322°
2026-05-04 11:22 58.05317 33.48948 31827 ft 402 kts 319°
2026-05-04 11:23 58.09668 33.42304 31823 ft 402 kts 319°
2026-05-04 11:25 58.24769 33.18998 31808 ft 402 kts 319°
2026-05-04 11:25 58.28591 33.13036 31804 ft 402 kts 319°
2026-05-04 11:27 58.47741 32.82852 31200 ft 387 kts 316°
2026-05-04 11:28 58.49716 32.79493 31113 ft 373 kts 315°
2026-05-04 11:28 58.51603 32.76214 31030 ft 360 kts 315°
2026-05-04 11:28 58.55091 32.70107 30865 ft 353 kts 315°
2026-05-04 11:29 58.56905 32.66932 30540 ft 353 kts 315°
2026-05-04 11:29 58.58714 32.63773 30120 ft 351 kts 315°
2026-05-04 11:29 58.60516 32.60635 29711 ft 349 kts 315°
2026-05-04 11:29 58.62311 32.57513 29308 ft 347 kts 315°
2026-05-04 11:31 58.74566 32.36087 26609 ft 335 kts 315°
2026-05-04 11:33 58.86394 32.15225 23816 ft 323 kts 315°
2026-05-04 11:33 58.88042 32.12293 23407 ft 321 kts 315°
2026-05-04 11:33 58.89682 32.09373 23000 ft 320 kts 315°
2026-05-04 11:34 58.91315 32.06463 22593 ft 318 kts 315°
2026-05-04 11:34 58.92942 32.03564 22184 ft 317 kts 314°
2026-05-04 11:34 58.94556 32.00680 21796 ft 316 kts 314°
2026-05-04 11:34 58.96166 31.97797 21400 ft 315 kts 314°
2026-05-04 11:35 58.97774 31.94920 21009 ft 314 kts 314°
2026-05-04 11:35 58.99375 31.92056 20620 ft 313 kts 314°
2026-05-04 11:35 59.00948 31.89232 20241 ft 312 kts 314°
2026-05-04 11:35 59.02537 31.86371 19850 ft 311 kts 314°
2026-05-04 11:36 59.04123 31.83520 19466 ft 310 kts 314°
2026-05-04 11:36 59.05705 31.80675 19084 ft 310 kts 314°
2026-05-04 11:36 59.07282 31.77835 18691 ft 309 kts 314°
2026-05-04 11:36 59.08858 31.74989 18316 ft 309 kts 314°
2026-05-04 11:37 59.10433 31.72141 17942 ft 308 kts 314°
2026-05-04 11:37 59.12004 31.69293 17561 ft 308 kts 314°
2026-05-04 11:37 59.13566 31.66457 17186 ft 307 kts 314°
2026-05-04 11:37 59.15124 31.63625 16822 ft 306 kts 314°
2026-05-04 11:38 59.16681 31.60794 16450 ft 306 kts 314°
2026-05-04 11:38 59.18232 31.57971 16096 ft 305 kts 314°
2026-05-04 11:38 59.19782 31.55148 15736 ft 304 kts 314°
2026-05-04 11:38 59.21328 31.52325 15361 ft 305 kts 314°
2026-05-04 11:39 59.22878 31.49500 15003 ft 305 kts 314°
2026-05-04 11:39 59.24428 31.46668 14644 ft 305 kts 314°
2026-05-04 11:40 59.33614 31.29767 12464 ft 298 kts 314°
2026-05-04 11:41 59.35126 31.26978 12105 ft 299 kts 314°
2026-05-04 11:41 59.36635 31.24195 11721 ft 295 kts 314°
2026-05-04 11:41 59.38128 31.21438 11352 ft 294 kts 314°
2026-05-04 11:41 59.39609 31.18693 10985 ft 293 kts 314°
2026-05-04 11:42 59.41089 31.15946 10613 ft 292 kts 314°
2026-05-04 11:42 59.42562 31.13202 10237 ft 292 kts 314°
2026-05-04 11:42 59.44029 31.10464 9877 ft 290 kts 314°
2026-05-04 11:42 59.45494 31.07728 9477 ft 290 kts 314°
2026-05-04 11:43 59.46956 31.05004 9086 ft 289 kts 314°
2026-05-04 11:43 59.48410 31.02295 8717 ft 288 kts 314°
2026-05-04 11:43 59.49859 30.99588 8369 ft 285 kts 314°
2026-05-04 11:43 59.51300 30.96896 7950 ft 285 kts 314°
2026-05-04 11:44 59.52731 30.94208 7555 ft 283 kts 314°
2026-05-04 11:44 59.54152 30.91535 7145 ft 283 kts 314°
2026-05-04 11:44 59.55564 30.88882 6730 ft 281 kts 314°
2026-05-04 11:44 59.56958 30.86266 6262 ft 272 kts 315°
2026-05-04 11:45 59.58301 30.83750 5848 ft 261 kts 314°
2026-05-04 11:45 59.59590 30.81316 5451 ft 254 kts 314°
2026-05-04 11:45 59.60869 30.78881 5044 ft 255 kts 314°
2026-05-04 11:45 59.62152 30.76446 4657 ft 254 kts 315°
2026-05-04 11:46 59.63417 30.74049 4396 ft 248 kts 314°
2026-05-04 11:46 59.64650 30.71713 4108 ft 245 kts 315°
2026-05-04 11:46 59.65875 30.69395 3736 ft 241 kts 315°
2026-05-04 11:46 59.67186 30.67412 3379 ft 234 kts 330°
2026-05-04 11:47 59.68598 30.66024 3261 ft 219 kts 332°
2026-05-04 11:47 59.69912 30.64719 3137 ft 210 kts 332°
2026-05-04 11:47 59.71176 30.63451 3030 ft 198 kts 332°
2026-05-04 11:47 59.72374 30.62253 2873 ft 188 kts 332°
2026-05-04 11:48 59.73515 30.61112 2748 ft 180 kts 332°
2026-05-04 11:48 59.74608 30.60010 2619 ft 172 kts 330°
2026-05-04 11:48 59.75520 30.58588 2509 ft 164 kts 310°
2026-05-04 11:48 59.76123 30.56742 2406 ft 156 kts 292°
2026-05-04 11:49 59.76455 30.54713 2297 ft 153 kts 285°
2026-05-04 11:49 59.76756 30.52703 2203 ft 149 kts 285°
2026-05-04 11:49 59.77047 30.50750 2103 ft 147 kts 285°
2026-05-04 11:49 59.77335 30.48813 1950 ft 146 kts 285°
2026-05-04 11:50 59.77623 30.46891 1777 ft 145 kts 285°
2026-05-04 11:50 59.77911 30.44979 1590 ft 144 kts 285°
2026-05-04 11:50 59.78198 30.43073 1402 ft 144 kts 285°
2026-05-04 11:50 59.78483 30.41172 1214 ft 143 kts 286°
2026-05-04 11:51 59.78768 30.39279 1021 ft 143 kts 286°
2026-05-04 11:51 59.79055 30.37379 832 ft 143 kts 285°
2026-05-04 11:51 59.79338 30.35489 641 ft 142 kts 286°
2026-05-04 11:51 59.79621 30.33606 453 ft 142 kts 285°
2026-05-04 11:52 59.79893 30.31723 258 ft 142 kts 287°
2026-05-04 11:52 59.80178 30.29859 90 ft 139 kts 287°
2026-05-04 11:52 59.80420 30.28241 75 ft 100 kts 286°
2026-05-04 11:52 59.80567 30.27242 81 ft 50 kts 287°
2026-05-04 11:53 59.80638 30.26769 80 ft 32 kts 286°
2026-05-04 11:53 59.80583 30.26632 80 ft 13 kts 196°
2026-05-04 11:53 59.80506 30.26587 81 ft 11 kts 196°
2026-05-04 11:53 59.80448 30.26571 81 ft 7 kts 156°
2026-05-04 11:55 59.80295 30.27540 82 ft 21 kts 106°
2026-05-04 11:55 59.80251 30.27832 83 ft 23 kts 108°
2026-05-04 11:56 59.80210 30.28099 81 ft 15 kts 111°
2026-05-04 11:56 59.80149 30.28053 81 ft 10 kts 275°
2026-05-04 11:56 59.80163 30.27956 81 ft 6 kts 285°
2026-05-04 11:56 59.80175 30.27882 82 ft 5 kts 289°
2026-05-04 11:57 59.80177 30.27869 81 ft 0 kts 287°
2026-05-04 12:02 59.80178 30.27601 85 ft 7 kts 85°